Time,TemperatureF,DewpointF,PressureIn,WindDirection,WindDirectionDegrees,WindSpeedMPH,WindSpeedGustMPH,Humidity,HourlyPrecipIn,Conditions,Clouds,dailyrainin,SoftwareType,DateUTC
2013-05-10 00:01:00,34.7,25.2,30.12,SE,135,0.0,0.9,68,0.00,,,0.00,WUHU21623XXSP,2013-05-10 05:01:00,
2013-05-10 00:06:00,34.3,24.1,30.12,SE,135,0.0,1.1,66,0.00,,,0.00,WUHU21623XXSP,2013-05-10 05:06:00,
2013-05-10 00:11:00,34.3,24.1,30.12,SE,135,0.1,1.1,66,0.00,,,0.00,WUHU21623XXSP,2013-05-10 05:11:00,
2013-05-10 00:16:00,34.3,24.1,30.12,SE,135,0.0,0.9,66,0.00,,,0.00,WUHU21623XXSP,2013-05-10 05:16:00,
2013-05-10 00:21:00,34.3,24.4,30.12,SE,135,0.0,0.0,67,0.00,,,0.00,WUHU21623XXSP,2013-05-10 05:21:00,
2013-05-10 00:26:00,33.8,23.9,30.13,SE,135,0.0,0.0,67,0.00,,,0.00,WUHU21623XXSP,2013-05-10 05:26:00,
2013-05-10 00:31:00,33.6,24.1,30.13,SE,135,0.0,0.0,68,0.00,,,0.00,WUHU21623XXSP,2013-05-10 05:31:00,
2013-05-10 00:36:00,33.3,23.8,30.13,SE,135,0.0,0.0,68,0.00,,,0.00,WUHU21623XXSP,2013-05-10 05:36:00,
2013-05-10 00:41:00,32.9,23.4,30.13,SE,135,0.0,0.0,68,0.00,,,0.00,WUHU21623XXSP,2013-05-10 05:41:00,
2013-05-10 00:46:00,32.9,23.8,30.13,SE,135,0.0,0.0,69,0.00,,,0.00,WUHU21623XXSP,2013-05-10 05:46:00,
2013-05-10 00:51:00,33.3,24.1,30.13,SE,135,0.0,0.0,69,0.00,,,0.00,WUHU21623XXSP,2013-05-10 05:51:00,
2013-05-10 00:56:00,32.9,24.2,30.13,SE,135,0.0,0.0,70,0.00,,,0.00,WUHU21623XXSP,2013-05-10 05:56:00,
2013-05-10 01:01:00,32.7,24.0,30.13,SE,135,0.0,0.9,70,0.00,,,0.00,WUHU21623XXSP,2013-05-10 06:01:00,
2013-05-10 01:06:00,32.9,23.8,30.13,SE,135,0.0,0.9,69,0.00,,,0.00,WUHU21623XXSP,2013-05-10 06:06:00,
2013-05-10 01:11:00,32.9,24.2,30.13,SE,135,0.0,0.0,70,0.00,,,0.00,WUHU21623XXSP,2013-05-10 06:11:00,
2013-05-10 01:16:00,33.1,24.3,30.12,SE,135,0.0,0.0,70,0.00,,,0.00,WUHU21623XXSP,2013-05-10 06:16:00,
2013-05-10 01:21:00,32.7,24.0,30.12,SE,135,0.0,0.0,70,0.00,,,0.00,WUHU21623XXSP,2013-05-10 06:21:00,
2013-05-10 01:26:00,32.4,23.7,30.12,SE,135,0.0,0.0,70,0.00,,,0.00,WUHU21623XXSP,2013-05-10 06:26:00,
2013-05-10 01:31:00,32.2,23.8,30.12,SE,135,0.0,0.0,71,0.00,,,0.00,WUHU21623XXSP,2013-05-10 06:31:00,
2013-05-10 01:36:00,32.2,23.8,30.12,SE,135,0.0,0.0,71,0.00,,,0.00,WUHU21623XXSP,2013-05-10 06:36:00,
2013-05-10 01:41:00,32.0,24.0,30.12,SE,135,0.0,0.0,72,0.00,,,0.00,WUHU21623XXSP,2013-05-10 06:41:00,
2013-05-10 01:46:00,31.3,23.6,30.12,SE,135,0.0,0.0,73,0.00,,,0.00,WUHU21623XXSP,2013-05-10 06:46:00,
2013-05-10 01:51:00,31.1,23.8,30.12,SE,135,0.0,0.0,74,0.00,,,0.00,WUHU21623XXSP,2013-05-10 06:51:00,
2013-05-10 01:56:00,30.9,23.3,30.12,SE,135,0.0,0.0,73,0.00,,,0.00,WUHU21623XXSP,2013-05-10 06:56:00,
2013-05-10 02:01:00,30.7,23.4,30.12,SE,135,0.0,0.0,74,0.00,,,0.00,WUHU21623XXSP,2013-05-10 07:01:00,
2013-05-10 02:06:00,30.6,23.5,30.12,SE,135,0.0,0.0,75,0.00,,,0.00,WUHU21623XXSP,2013-05-10 07:06:00,
2013-05-10 02:11:00,30.4,23.7,30.12,SE,135,0.0,0.0,76,0.00,,,0.00,WUHU21623XXSP,2013-05-10 07:11:00,
2013-05-10 02:16:00,30.0,23.3,30.12,SE,135,0.0,0.0,76,0.00,,,0.00,WUHU21623XXSP,2013-05-10 07:16:00,
2013-05-10 02:21:00,30.0,23.3,30.12,SE,135,0.0,0.0,76,0.00,,,0.00,WUHU21623XXSP,2013-05-10 07:21:00,
2013-05-10 02:26:00,30.6,24.5,30.12,SE,135,0.0,0.0,78,0.00,,,0.00,WUHU21623XXSP,2013-05-10 07:26:00,
2013-05-10 02:31:00,30.4,24.3,30.12,SE,135,0.0,0.0,78,0.00,,,0.00,WUHU21623XXSP,2013-05-10 07:31:00,
2013-05-10 02:36:00,30.4,24.0,30.12,SE,135,0.0,0.0,77,0.00,,,0.00,WUHU21623XXSP,2013-05-10 07:36:00,
2013-05-10 02:41:00,29.8,23.5,30.12,SE,135,0.0,0.0,77,0.00,,,0.00,WUHU21623XXSP,2013-05-10 07:41:00,
2013-05-10 02:46:00,29.8,23.8,30.12,SE,135,0.0,0.0,78,0.00,,,0.00,WUHU21623XXSP,2013-05-10 07:46:00,
2013-05-10 02:51:00,30.0,23.3,30.12,SE,135,0.0,0.0,76,0.00,,,0.00,WUHU21623XXSP,2013-05-10 07:51:00,
2013-05-10 02:56:00,30.4,23.7,30.12,SE,135,0.0,0.0,76,0.00,,,0.00,WUHU21623XXSP,2013-05-10 07:56:00,
2013-05-10 03:01:00,30.4,23.4,30.12,SE,135,0.0,0.0,75,0.00,,,0.00,WUHU21623XXSP,2013-05-10 08:01:00,
2013-05-10 03:06:00,30.2,23.2,30.11,SE,135,0.0,0.0,75,0.00,,,0.00,WUHU21623XXSP,2013-05-10 08:06:00,
2013-05-10 03:11:00,30.2,23.2,30.11,SE,135,0.0,0.0,75,0.00,,,0.00,WUHU21623XXSP,2013-05-10 08:11:00,
2013-05-10 03:16:00,30.0,22.7,30.11,SE,135,0.0,0.0,74,0.00,,,0.00,WUHU21623XXSP,2013-05-10 08:16:00,
2013-05-10 03:21:00,30.0,22.7,30.11,SE,135,0.0,0.0,74,0.00,,,0.00,WUHU21623XXSP,2013-05-10 08:21:00,
2013-05-10 03:26:00,29.8,22.5,30.11,SE,135,0.0,0.0,74,0.00,,,0.00,WUHU21623XXSP,2013-05-10 08:26:00,
2013-05-10 03:31:00,29.5,22.2,30.11,SE,135,0.0,0.0,74,0.00,,,0.00,WUHU21623XXSP,2013-05-10 08:31:00,
2013-05-10 03:36:00,30.0,22.7,30.11,SE,135,0.0,0.0,74,0.00,,,0.00,WUHU21623XXSP,2013-05-10 08:36:00,
2013-05-10 03:41:00,29.5,22.2,30.10,SE,135,0.0,0.0,74,0.00,,,0.00,WUHU21623XXSP,2013-05-10 08:41:00,
2013-05-10 03:46:00,29.8,22.5,30.10,SE,135,0.0,0.0,74,0.00,,,0.00,WUHU21623XXSP,2013-05-10 08:46:00,
2013-05-10 03:51:00,30.0,21.7,30.10,SE,135,0.0,0.0,71,0.00,,,0.00,WUHU21623XXSP,2013-05-10 08:51:00,
2013-05-10 03:56:00,29.7,21.1,30.10,SE,135,0.0,0.0,70,0.00,,,0.00,WUHU21623XXSP,2013-05-10 08:56:00,
2013-05-10 04:01:00,29.5,21.5,30.10,SE,135,0.0,0.0,72,0.00,,,0.00,WUHU21623XXSP,2013-05-10 09:01:00,
2013-05-10 04:06:00,29.1,21.5,30.10,SE,135,0.0,0.0,73,0.00,,,0.00,WUHU21623XXSP,2013-05-10 09:06:00,
2013-05-10 04:11:00,29.5,21.2,30.10,SE,135,0.1,0.7,71,0.00,,,0.00,WUHU21623XXSP,2013-05-10 09:11:00,
2013-05-10 04:16:00,29.5,21.5,30.10,ESE,112,0.2,0.9,72,0.00,,,0.00,WUHU21623XXSP,2013-05-10 09:16:00,
2013-05-10 04:21:00,30.0,20.3,30.10,ESE,112,0.0,0.9,67,0.00,,,0.00,WUHU21623XXSP,2013-05-10 09:21:00,
2013-05-10 04:26:00,29.8,20.9,30.10,ESE,112,0.0,0.9,69,0.00,,,0.00,WUHU21623XXSP,2013-05-10 09:26:00,
2013-05-10 04:31:00,29.7,20.7,30.10,ESE,112,0.1,0.9,69,0.00,,,0.00,WUHU21623XXSP,2013-05-10 09:31:00,
2013-05-10 04:36:00,30.0,20.3,30.10,ESE,112,0.2,1.6,67,0.00,,,0.00,WUHU21623XXSP,2013-05-10 09:36:00,
2013-05-10 04:41:00,30.7,20.3,30.10,ENE,67,0.8,3.4,65,0.00,,,0.00,WUHU21623XXSP,2013-05-10 09:41:00,
2013-05-10 04:46:00,30.2,20.1,30.09,ENE,67,0.0,3.4,66,0.00,,,0.00,WUHU21623XXSP,2013-05-10 09:46:00,
2013-05-10 04:51:00,30.4,19.9,30.09,ENE,67,0.1,0.9,65,0.00,,,0.00,WUHU21623XXSP,2013-05-10 09:51:00,
2013-05-10 04:56:00,30.0,20.3,30.09,ENE,67,0.0,0.7,67,0.00,,,0.00,WUHU21623XXSP,2013-05-10 09:56:00,
2013-05-10 05:01:00,29.8,19.8,30.09,ENE,67,0.0,0.0,66,0.00,,,0.00,WUHU21623XXSP,2013-05-10 10:01:00,
2013-05-10 05:06:00,29.8,19.8,30.09,ENE,67,0.4,1.8,66,0.00,,,0.00,WUHU21623XXSP,2013-05-10 10:06:00,
2013-05-10 05:11:00,30.2,20.1,30.09,ENE,67,0.1,1.8,66,0.00,,,0.00,WUHU21623XXSP,2013-05-10 10:11:00,
2013-05-10 05:16:00,30.0,20.3,30.09,ENE,67,0.0,1.6,67,0.00,,,0.00,WUHU21623XXSP,2013-05-10 10:16:00,
2013-05-10 05:21:00,29.7,20.4,30.09,ENE,67,0.0,1.6,68,0.00,,,0.00,WUHU21623XXSP,2013-05-10 10:21:00,
2013-05-10 05:26:00,29.5,20.2,30.09,ENE,67,0.7,0.7,68,0.00,,,0.00,WUHU21623XXSP,2013-05-10 10:26:00,
2013-05-10 05:31:00,29.1,19.9,30.09,ENE,67,0.0,0.7,68,0.00,,,0.00,WUHU21623XXSP,2013-05-10 10:31:00,
2013-05-10 05:36:00,29.3,19.7,30.09,NE,45,0.0,1.8,67,0.00,,,0.00,WUHU21623XXSP,2013-05-10 10:36:00,
2013-05-10 05:41:00,29.1,19.9,30.09,NE,45,0.0,1.8,68,0.00,,,0.00,WUHU21623XXSP,2013-05-10 10:41:00,
2013-05-10 05:46:00,29.1,19.9,30.09,NE,45,0.4,1.3,68,0.00,,,0.00,WUHU21623XXSP,2013-05-10 10:46:00,
2013-05-10 05:51:00,29.3,20.0,30.09,ENE,67,0.0,1.3,68,0.00,,,0.00,WUHU21623XXSP,2013-05-10 10:51:00,
2013-05-10 05:56:00,29.3,20.4,30.09,ENE,67,0.0,0.7,69,0.00,,,0.00,WUHU21623XXSP,2013-05-10 10:56:00,
2013-05-10 06:01:00,28.9,20.1,30.09,ENE,67,0.0,0.7,69,0.00,,,0.00,WUHU21623XXSP,2013-05-10 11:01:00,
2013-05-10 06:06:00,30.0,20.3,30.09,ESE,112,0.7,2.2,67,0.00,,,0.00,WUHU21623XXSP,2013-05-10 11:06:00,
2013-05-10 06:11:00,30.0,20.7,30.09,ESE,112,0.0,2.2,68,0.00,,,0.00,WUHU21623XXSP,2013-05-10 11:11:00,
2013-05-10 06:16:00,30.0,20.3,30.09,East,97,0.5,2.5,67,0.00,,,0.00,WUHU21623XXSP,2013-05-10 11:16:00,
2013-05-10 06:21:00,30.0,20.7,30.09,North,0,0.0,2.9,68,0.00,,,0.00,WUHU21623XXSP,2013-05-10 11:21:00,
2013-05-10 06:26:00,30.0,20.3,30.09,NNE,22,0.0,2.9,67,0.00,,,0.00,WUHU21623XXSP,2013-05-10 11:26:00,
2013-05-10 06:31:00,30.2,20.5,30.08,SSE,157,2.0,4.0,67,0.00,,,0.00,WUHU21623XXSP,2013-05-10 11:31:00,
2013-05-10 06:36:00,30.6,20.8,30.09,East,90,0.4,4.0,67,0.00,,,0.00,WUHU21623XXSP,2013-05-10 11:36:00,
2013-05-10 06:41:00,30.9,21.2,30.09,East,89,0.6,3.1,67,0.00,,,0.00,WUHU21623XXSP,2013-05-10 11:41:00,
2013-05-10 06:46:00,31.3,20.8,30.09,SSE,157,0.7,3.1,65,0.00,,,0.00,WUHU21623XXSP,2013-05-10 11:46:00,
2013-05-10 06:51:00,31.6,21.6,30.09,ESE,112,0.9,3.4,66,0.00,,,0.00,WUHU21623XXSP,2013-05-10 11:51:00,
2013-05-10 06:56:00,31.8,21.0,30.09,ENE,67,3.4,4.9,64,0.00,,,0.00,WUHU21623XXSP,2013-05-10 11:56:00,
2013-05-10 07:01:00,32.2,21.4,30.08,ENE,67,0.3,5.6,64,0.00,,,0.00,WUHU21623XXSP,2013-05-10 12:01:00,
2013-05-10 07:06:00,32.2,21.4,30.08,ESE,112,0.6,5.6,64,0.00,,,0.00,WUHU21623XXSP,2013-05-10 12:06:00,
2013-05-10 07:11:00,32.5,21.7,30.09,East,90,0.3,6.5,64,0.00,,,0.00,WUHU21623XXSP,2013-05-10 12:11:00,
2013-05-10 07:16:00,33.1,21.8,30.08,ENE,69,1.3,6.5,63,0.00,,,0.00,WUHU21623XXSP,2013-05-10 12:16:00,
2013-05-10 07:21:00,33.3,22.0,30.09,ENE,67,0.0,4.5,63,0.00,,,0.00,WUHU21623XXSP,2013-05-10 12:21:00,
2013-05-10 07:26:00,33.3,21.6,30.08,SE,137,1.3,4.7,62,0.00,,,0.00,WUHU21623XXSP,2013-05-10 12:26:00,
2013-05-10 07:31:00,33.3,21.6,30.08,East,98,1.4,4.7,62,0.00,,,0.00,WUHU21623XXSP,2013-05-10 12:31:00,
2013-05-10 07:36:00,33.6,21.9,30.08,SSE,157,5.6,5.6,62,0.00,,,0.00,WUHU21623XXSP,2013-05-10 12:36:00,
2013-05-10 07:41:00,33.6,21.2,30.08,ESE,112,2.2,5.6,60,0.00,,,0.00,WUHU21623XXSP,2013-05-10 12:41:00,
2013-05-10 07:46:00,34.0,22.3,30.08,NE,55,2.2,6.5,62,0.00,,,0.00,WUHU21623XXSP,2013-05-10 12:46:00,
2013-05-10 07:51:00,34.3,21.9,30.08,ESE,110,3.1,6.5,60,0.00,,,0.00,WUHU21623XXSP,2013-05-10 12:51:00,
2013-05-10 07:56:00,35.1,22.2,30.08,South,180,1.6,6.3,59,0.00,,,0.00,WUHU21623XXSP,2013-05-10 12:56:00,
2013-05-10 08:01:00,35.2,22.0,30.08,SE,139,4.4,6.3,58,0.00,,,0.00,WUHU21623XXSP,2013-05-10 13:01:00,
2013-05-10 08:06:00,35.8,22.9,30.08,NE,45,1.1,6.3,59,0.00,,,0.00,WUHU21623XXSP,2013-05-10 13:06:00,
2013-05-10 08:11:00,36.9,23.4,30.08,NNE,22,0.4,3.4,58,0.00,,,0.00,WUHU21623XXSP,2013-05-10 13:11:00,
2013-05-10 08:16:00,36.5,22.7,30.08,ENE,67,0.3,4.0,57,0.00,,,0.00,WUHU21623XXSP,2013-05-10 13:16:00,
2013-05-10 08:21:00,37.2,23.8,30.08,SE,135,0.3,4.0,58,0.00,,,0.00,WUHU21623XXSP,2013-05-10 13:21:00,
2013-05-10 08:26:00,37.6,21.9,30.07,South,180,5.8,5.8,53,0.00,,,0.00,WUHU21623XXSP,2013-05-10 13:26:00,
2013-05-10 08:31:00,37.8,21.7,30.07,ESE,112,4.5,6.3,52,0.00,,,0.00,WUHU21623XXSP,2013-05-10 13:31:00,
2013-05-10 08:36:00,39.0,23.2,30.07,SE,135,0.9,6.3,53,0.00,,,0.00,WUHU21623XXSP,2013-05-10 13:36:00,
2013-05-10 08:41:00,39.4,22.3,30.06,SE,125,3.3,6.5,50,0.00,,,0.00,WUHU21623XXSP,2013-05-10 13:41:00,
2013-05-10 08:46:00,39.4,21.7,30.06,SE,130,2.2,6.9,49,0.00,,,0.00,WUHU21623XXSP,2013-05-10 13:46:00,
2013-05-10 08:51:00,39.2,22.1,30.06,ENE,67,5.4,6.9,50,0.00,,,0.00,WUHU21623XXSP,2013-05-10 13:51:00,
2013-05-10 08:56:00,39.4,21.7,30.06,NE,50,2.8,6.9,49,0.00,,,0.00,WUHU21623XXSP,2013-05-10 13:56:00,
2013-05-10 09:01:00,40.5,22.2,30.05,ENE,74,3.4,6.5,48,0.00,,,0.00,WUHU21623XXSP,2013-05-10 14:01:00,
2013-05-10 09:06:00,41.2,22.8,30.06,NE,52,1.4,6.0,48,0.00,,,0.00,WUHU21623XXSP,2013-05-10 14:06:00,
2013-05-10 09:11:00,41.5,22.7,30.05,SSW,196,3.5,6.3,47,0.00,,,0.00,WUHU21623XXSP,2013-05-10 14:11:00,
2013-05-10 09:16:00,41.5,23.2,30.04,South,180,5.4,6.3,48,0.00,,,0.00,WUHU21623XXSP,2013-05-10 14:16:00,
2013-05-10 09:21:00,41.4,23.0,30.05,SE,135,1.2,5.4,48,0.00,,,0.00,WUHU21623XXSP,2013-05-10 14:21:00,
2013-05-10 09:26:00,42.4,23.0,30.05,South,172,2.6,6.0,46,0.00,,,0.00,WUHU21623XXSP,2013-05-10 14:26:00,
2013-05-10 09:31:00,42.8,22.8,30.04,ESE,112,1.0,6.0,45,0.00,,,0.00,WUHU21623XXSP,2013-05-10 14:31:00,
2013-05-10 09:36:00,43.5,24.0,30.05,SE,135,3.4,5.6,46,0.00,,,0.00,WUHU21623XXSP,2013-05-10 14:36:00,
2013-05-10 09:41:00,43.7,22.0,30.05,SSE,157,2.5,5.6,42,0.00,,,0.00,WUHU21623XXSP,2013-05-10 14:41:00,
2013-05-10 09:46:00,42.6,21.0,30.05,SE,135,6.5,6.5,42,0.00,,,0.00,WUHU21623XXSP,2013-05-10 14:46:00,
2013-05-10 09:51:00,43.3,22.2,30.04,South,180,4.5,6.7,43,0.00,,,0.00,WUHU21623XXSP,2013-05-10 14:51:00,
2013-05-10 09:56:00,45.0,21.4,30.04,ENE,67,2.9,6.7,39,0.00,,,0.00,WUHU21623XXSP,2013-05-10 14:56:00,
2013-05-10 10:01:00,44.8,21.2,30.04,SSE,157,2.5,7.4,39,0.00,,,0.00,WUHU21623XXSP,2013-05-10 15:01:00,
2013-05-10 10:06:00,44.4,20.2,30.04,SE,135,2.2,7.4,38,0.00,,,0.00,WUHU21623XXSP,2013-05-10 15:06:00,
2013-05-10 10:11:00,44.2,19.4,30.04,ESE,106,4.2,6.5,37,0.00,,,0.00,WUHU21623XXSP,2013-05-10 15:11:00,
2013-05-10 10:16:00,44.4,20.2,30.04,ENE,69,3.7,6.0,38,0.00,,,0.00,WUHU21623XXSP,2013-05-10 15:16:00,
2013-05-10 10:21:00,44.2,20.1,30.04,East,89,1.8,6.9,38,0.00,,,0.00,WUHU21623XXSP,2013-05-10 15:21:00,
2013-05-10 10:26:00,45.7,20.7,30.03,SSW,202,4.3,6.9,37,0.00,,,0.00,WUHU21623XXSP,2013-05-10 15:26:00,
2013-05-10 10:31:00,45.1,18.9,30.04,NE,51,0.3,7.4,35,0.00,,,0.00,WUHU21623XXSP,2013-05-10 15:31:00,
2013-05-10 10:36:00,47.3,20.2,30.04,SW,225,2.0,8.5,34,0.00,,,0.00,WUHU21623XXSP,2013-05-10 15:36:00,
2013-05-10 10:41:00,47.1,20.7,30.04,SSE,148,4.2,8.5,35,0.00,,,0.00,WUHU21623XXSP,2013-05-10 15:41:00,
2013-05-10 10:46:00,49.1,21.1,30.03,NE,42,1.2,7.6,33,0.00,,,0.00,WUHU21623XXSP,2013-05-10 15:46:00,
2013-05-10 10:51:00,48.7,20.1,30.02,South,181,3.9,7.2,32,0.00,,,0.00,WUHU21623XXSP,2013-05-10 15:51:00,
2013-05-10 10:56:00,48.6,20.6,30.02,South,180,4.5,7.4,33,0.00,,,0.00,WUHU21623XXSP,2013-05-10 15:56:00,
2013-05-10 11:01:00,48.0,20.2,30.02,SSE,166,4.4,8.5,33,0.00,,,0.00,WUHU21623XXSP,2013-05-10 16:01:00,
2013-05-10 11:06:00,49.3,20.5,30.02,SSE,157,7.6,8.5,32,0.00,,,0.00,WUHU21623XXSP,2013-05-10 16:06:00,
2013-05-10 11:11:00,48.2,21.6,30.01,SSE,157,0.1,7.8,35,0.00,,,0.00,WUHU21623XXSP,2013-05-10 16:11:00,
2013-05-10 11:16:00,50.7,22.5,30.01,South,180,5.4,7.8,33,0.00,,,0.00,WUHU21623XXSP,2013-05-10 16:16:00,
2013-05-10 11:21:00,49.8,21.6,30.00,South,185,1.9,7.4,33,0.00,,,0.00,WUHU21623XXSP,2013-05-10 16:21:00,
2013-05-10 11:26:00,50.2,20.6,30.00,ESE,107,4.9,7.6,31,0.00,,,0.00,WUHU21623XXSP,2013-05-10 16:26:00,
2013-05-10 11:31:00,51.1,22.8,30.00,SSE,162,0.9,7.6,33,0.00,,,0.00,WUHU21623XXSP,2013-05-10 16:31:00,
2013-05-10 11:36:00,50.7,21.1,29.99,SSE,155,4.5,8.1,31,0.00,,,0.00,WUHU21623XXSP,2013-05-10 16:36:00,
2013-05-10 11:40:00,50.4,21.5,29.99,ESE,112,4.3,8.1,32,0.00,,,0.00,WUHU21623XXSP,2013-05-10 16:40:00,
2013-05-10 11:45:00,50.2,21.3,29.99,ENE,67,7.2,8.3,32,0.00,,,0.00,WUHU21623XXSP,2013-05-10 16:45:00,
2013-05-10 11:50:00,50.5,20.2,29.99,SSE,157,3.8,9.8,30,0.00,,,0.00,WUHU21623XXSP,2013-05-10 16:50:00,
2013-05-10 11:55:00,51.4,21.1,29.98,SSW,202,5.4,9.8,30,0.00,,,0.00,WUHU21623XXSP,2013-05-10 16:55:00,
2013-05-10 12:00:00,50.7,20.4,29.99,SE,134,4.3,8.5,30,0.00,,,0.00,WUHU21623XXSP,2013-05-10 17:00:00,
2013-05-10 12:05:00,51.6,22.6,29.98,South,180,3.4,7.6,32,0.00,,,0.00,WUHU21623XXSP,2013-05-10 17:05:00,
2013-05-10 12:10:00,52.2,20.8,29.98,SW,225,7.8,8.3,29,0.00,,,0.00,WUHU21623XXSP,2013-05-10 17:10:00,
2013-05-10 12:15:00,53.2,21.7,29.98,NE,40,3.0,8.3,29,0.00,,,0.00,WUHU21623XXSP,2013-05-10 17:15:00,
2013-05-10 12:20:00,53.8,23.1,29.98,South,180,5.2,8.1,30,0.00,,,0.00,WUHU21623XXSP,2013-05-10 17:20:00,
2013-05-10 12:25:00,52.9,22.4,29.98,SW,216,3.4,8.1,30,0.00,,,0.00,WUHU21623XXSP,2013-05-10 17:25:00,
2013-05-10 12:30:00,53.2,20.8,29.98,SSE,154,2.9,7.8,28,0.00,,,0.00,WUHU21623XXSP,2013-05-10 17:30:00,
2013-05-10 12:35:00,53.4,21.9,29.98,SE,135,2.9,11.9,29,0.00,,,0.00,WUHU21623XXSP,2013-05-10 17:35:00,
2013-05-10 12:40:00,54.3,21.7,29.98,SE,135,4.7,11.9,28,0.00,,,0.00,WUHU21623XXSP,2013-05-10 17:40:00,
2013-05-10 12:45:00,54.0,19.5,29.97,SE,137,4.3,7.8,26,0.00,,,0.00,WUHU21623XXSP,2013-05-10 17:45:00,
2013-05-10 12:50:00,53.2,20.8,29.96,SSW,202,5.8,7.8,28,0.00,,,0.00,WUHU21623XXSP,2013-05-10 17:50:00,
2013-05-10 12:55:00,53.8,21.2,29.96,SSE,157,5.4,8.1,28,0.00,,,0.00,WUHU21623XXSP,2013-05-10 17:55:00,
2013-05-10 13:00:00,53.4,20.0,29.95,SE,136,3.9,8.5,27,0.00,,,0.00,WUHU21623XXSP,2013-05-10 18:00:00,
2013-05-10 13:05:00,54.1,21.5,29.95,SSE,157,4.9,8.5,28,0.00,,,0.00,WUHU21623XXSP,2013-05-10 18:05:00,
2013-05-10 13:10:00,54.7,21.0,29.95,SW,220,6.5,8.1,27,0.00,,,0.00,WUHU21623XXSP,2013-05-10 18:10:00,
2013-05-10 13:15:00,55.9,24.0,29.94,West,259,1.8,8.1,29,0.00,,,0.00,WUHU21623XXSP,2013-05-10 18:15:00,
2013-05-10 13:20:00,56.5,23.5,29.94,SSE,157,6.3,6.7,28,0.00,,,0.00,WUHU21623XXSP,2013-05-10 18:20:00,
2013-05-10 13:25:00,56.1,21.3,29.94,SSW,202,6.3,8.9,26,0.00,,,0.00,WUHU21623XXSP,2013-05-10 18:25:00,
2013-05-10 13:30:00,55.9,21.1,29.94,SW,225,8.9,8.9,26,0.00,,,0.00,WUHU21623XXSP,2013-05-10 18:30:00,
2013-05-10 13:35:00,55.2,21.5,29.94,South,180,7.2,11.2,27,0.00,,,0.00,WUHU21623XXSP,2013-05-10 18:35:00,
2013-05-10 13:40:00,55.6,20.8,29.93,SE,139,5.3,11.2,26,0.00,,,0.00,WUHU21623XXSP,2013-05-10 18:40:00,
2013-05-10 13:45:00,55.2,22.4,29.93,South,180,5.0,8.9,28,0.00,,,0.00,WUHU21623XXSP,2013-05-10 18:45:00,
2013-05-10 13:50:00,54.7,21.0,29.93,WSW,239,6.0,9.4,27,0.00,,,0.00,WUHU21623XXSP,2013-05-10 18:50:00,
2013-05-10 13:55:00,55.9,23.0,29.93,SW,225,7.2,10.3,28,0.00,,,0.00,WUHU21623XXSP,2013-05-10 18:55:00,
2013-05-10 14:00:00,57.0,23.0,29.93,SSW,202,7.4,10.3,27,0.00,,,0.00,WUHU21623XXSP,2013-05-10 19:00:00,
2013-05-10 14:05:00,56.8,21.9,29.93,SW,225,7.8,8.9,26,0.00,,,0.00,WUHU21623XXSP,2013-05-10 19:05:00,
2013-05-10 14:10:00,57.0,22.1,29.93,SSW,202,8.1,8.9,26,0.00,,,0.00,WUHU21623XXSP,2013-05-10 19:10:00,
2013-05-10 14:15:00,58.1,23.0,29.92,ESE,112,3.6,8.1,26,0.00,,,0.00,WUHU21623XXSP,2013-05-10 19:15:00,
2013-05-10 14:20:00,57.4,20.5,29.92,South,182,5.3,11.4,24,0.00,,,0.00,WUHU21623XXSP,2013-05-10 19:20:00,
2013-05-10 14:25:00,56.5,21.6,29.92,South,170,3.8,11.4,26,0.00,,,0.00,WUHU21623XXSP,2013-05-10 19:25:00,
2013-05-10 14:30:00,57.7,22.7,29.92,WSW,247,6.7,8.3,26,0.00,,,0.00,WUHU21623XXSP,2013-05-10 19:30:00,
2013-05-10 14:35:00,57.9,22.9,29.91,SSE,167,5.6,11.0,26,0.00,,,0.00,WUHU21623XXSP,2013-05-10 19:35:00,
2013-05-10 14:40:00,57.0,21.1,29.91,SSE,159,6.4,11.0,25,0.00,,,0.00,WUHU21623XXSP,2013-05-10 19:40:00,
2013-05-10 14:45:00,58.1,22.0,29.91,SE,135,5.8,10.1,25,0.00,,,0.00,WUHU21623XXSP,2013-05-10 19:45:00,
2013-05-10 14:50:00,58.5,20.4,29.91,SSW,203,4.2,8.5,23,0.00,,,0.00,WUHU21623XXSP,2013-05-10 19:50:00,
2013-05-10 14:55:00,57.7,23.7,29.91,SW,225,4.5,8.5,27,0.00,,,0.00,WUHU21623XXSP,2013-05-10 19:55:00,
2013-05-10 15:00:00,58.8,22.7,29.91,SSW,202,1.1,8.5,25,0.00,,,0.00,WUHU21623XXSP,2013-05-10 20:00:00,
2013-05-10 15:05:00,58.8,23.6,29.90,SSE,157,4.2,6.9,26,0.00,,,0.00,WUHU21623XXSP,2013-05-10 20:05:00,
2013-05-10 15:10:00,58.6,22.5,29.89,South,184,5.3,8.5,25,0.00,,,0.00,WUHU21623XXSP,2013-05-10 20:10:00,
2013-05-10 15:15:00,59.7,23.4,29.89,SSE,157,5.4,8.5,25,0.00,,,0.00,WUHU21623XXSP,2013-05-10 20:15:00,
2013-05-10 15:20:00,58.8,22.7,29.89,SSE,163,8.4,11.6,25,0.00,,,0.00,WUHU21623XXSP,2013-05-10 20:20:00,
2013-05-10 15:25:00,58.3,22.2,29.89,SE,144,6.9,11.6,25,0.00,,,0.00,WUHU21623XXSP,2013-05-10 20:25:00,
2013-05-10 15:30:00,57.7,22.7,29.89,SW,217,2.0,9.8,26,0.00,,,0.00,WUHU21623XXSP,2013-05-10 20:30:00,
2013-05-10 15:35:00,58.5,22.4,29.89,SSW,196,6.4,8.7,25,0.00,,,0.00,WUHU21623XXSP,2013-05-10 20:35:00,
2013-05-10 15:40:00,57.7,21.7,29.88,SSW,207,5.9,10.5,25,0.00,,,0.00,WUHU21623XXSP,2013-05-10 20:40:00,
2013-05-10 15:45:00,57.6,21.6,29.88,SSE,149,5.3,10.5,25,0.00,,,0.00,WUHU21623XXSP,2013-05-10 20:45:00,
2013-05-10 15:50:00,57.4,21.4,29.88,SE,135,6.9,8.5,25,0.00,,,0.00,WUHU21623XXSP,2013-05-10 20:50:00,
2013-05-10 15:55:00,56.5,21.6,29.87,SSW,205,6.8,11.0,26,0.00,,,0.00,WUHU21623XXSP,2013-05-10 20:55:00,
2013-05-10 16:00:00,56.8,21.9,29.87,South,169,5.1,11.0,26,0.00,,,0.00,WUHU21623XXSP,2013-05-10 21:00:00,
2013-05-10 16:05:00,56.8,23.8,29.87,SE,135,6.0,8.5,28,0.00,,,0.00,WUHU21623XXSP,2013-05-10 21:05:00,
2013-05-10 16:10:00,56.8,22.9,29.87,SSE,157,8.5,8.5,27,0.00,,,0.00,WUHU21623XXSP,2013-05-10 21:10:00,
2013-05-10 16:15:00,56.5,22.6,29.87,South,182,6.2,8.5,27,0.00,,,0.00,WUHU21623XXSP,2013-05-10 21:15:00,
2013-05-10 16:20:00,56.5,22.6,29.86,SSE,157,8.1,8.3,27,0.00,,,0.00,WUHU21623XXSP,2013-05-10 21:20:00,
2013-05-10 16:25:00,56.5,22.6,29.86,South,186,5.0,8.3,27,0.00,,,0.00,WUHU21623XXSP,2013-05-10 21:25:00,
2013-05-10 16:30:00,56.5,22.6,29.86,SSW,202,7.2,8.1,27,0.00,,,0.00,WUHU21623XXSP,2013-05-10 21:30:00,
2013-05-10 16:35:00,56.5,23.5,29.86,SSW,202,3.4,8.1,28,0.00,,,0.00,WUHU21623XXSP,2013-05-10 21:35:00,
2013-05-10 16:40:00,56.3,23.4,29.86,South,172,5.3,8.5,28,0.00,,,0.00,WUHU21623XXSP,2013-05-10 21:40:00,
2013-05-10 16:45:00,56.1,24.1,29.86,SE,135,5.8,8.5,29,0.00,,,0.00,WUHU21623XXSP,2013-05-10 21:45:00,
2013-05-10 16:50:00,55.9,24.0,29.86,SE,135,4.5,7.6,29,0.00,,,0.00,WUHU21623XXSP,2013-05-10 21:50:00,
2013-05-10 16:55:00,55.9,24.9,29.86,SSE,157,9.8,9.8,30,0.00,,,0.00,WUHU21623XXSP,2013-05-10 21:55:00,
2013-05-10 16:58:00,55.8,23.8,29.86,South,189,5.8,9.8,29,0.00,,,0.00,WUHU21623XXSP,2013-05-10 21:58:00,
2013-05-10 17:03:00,55.8,23.8,29.86,South,180,2.0,9.8,29,0.00,,,0.00,WUHU21623XXSP,2013-05-10 22:03:00,
2013-05-10 17:08:00,55.6,24.6,29.85,South,173,3.2,7.6,30,0.00,,,0.00,WUHU21623XXSP,2013-05-10 22:08:00,
2013-05-10 17:13:00,55.6,23.6,29.85,SSW,200,5.5,7.8,29,0.00,,,0.00,WUHU21623XXSP,2013-05-10 22:13:00,
2013-05-10 17:18:00,55.6,23.6,29.85,SSW,202,7.8,7.8,29,0.00,,,0.00,WUHU21623XXSP,2013-05-10 22:18:00,
2013-05-10 17:23:00,55.4,24.4,29.85,South,180,4.5,7.8,30,0.00,,,0.00,WUHU21623XXSP,2013-05-10 22:23:00,
2013-05-10 17:28:00,55.4,23.5,29.85,SW,225,6.0,8.1,29,0.00,,,0.00,WUHU21623XXSP,2013-05-10 22:28:00,
2013-05-10 17:33:00,55.4,23.5,29.85,South,180,3.6,8.1,29,0.00,,,0.00,WUHU21623XXSP,2013-05-10 22:33:00,
2013-05-10 17:38:00,55.6,24.6,29.85,SSE,157,5.4,6.9,30,0.00,,,0.00,WUHU21623XXSP,2013-05-10 22:38:00,
2013-05-10 17:43:00,55.2,22.4,29.84,SSW,202,5.6,7.8,28,0.00,,,0.00,WUHU21623XXSP,2013-05-10 22:43:00,
2013-05-10 17:48:00,55.2,23.3,29.84,SSE,157,3.8,7.8,29,0.00,,,0.00,WUHU21623XXSP,2013-05-10 22:48:00,
2013-05-10 17:53:00,54.7,24.5,29.83,South,180,7.4,8.1,31,0.00,,,0.00,WUHU21623XXSP,2013-05-10 22:53:00,
2013-05-10 17:58:00,54.3,24.3,29.83,SSE,149,4.9,8.1,31,0.00,,,0.00,WUHU21623XXSP,2013-05-10 22:58:00,
2013-05-10 18:03:00,54.0,23.3,29.83,SSE,163,6.3,11.2,30,0.00,,,0.00,WUHU21623XXSP,2013-05-10 23:03:00,
2013-05-10 18:08:00,54.0,22.3,29.82,SE,135,6.3,11.2,29,0.00,,,0.00,WUHU21623XXSP,2013-05-10 23:08:00,
2013-05-10 18:13:00,54.0,23.3,29.81,SSE,153,5.3,11.4,30,0.00,,,0.00,WUHU21623XXSP,2013-05-10 23:13:00,
2013-05-10 18:18:00,54.0,22.3,29.82,South,180,6.7,11.4,29,0.00,,,0.00,WUHU21623XXSP,2013-05-10 23:18:00,
2013-05-10 18:23:00,53.8,22.2,29.82,SSE,157,7.2,8.5,29,0.00,,,0.00,WUHU21623XXSP,2013-05-10 23:23:00,
2013-05-10 18:28:00,53.8,22.2,29.81,SSE,165,3.7,8.5,29,0.00,,,0.00,WUHU21623XXSP,2013-05-10 23:28:00,
2013-05-10 18:33:00,53.8,23.1,29.81,SSW,202,5.6,8.1,30,0.00,,,0.00,WUHU21623XXSP,2013-05-10 23:33:00,
2013-05-10 18:38:00,53.4,21.9,29.81,SE,135,6.5,8.3,29,0.00,,,0.00,WUHU21623XXSP,2013-05-10 23:38:00,
2013-05-10 18:43:00,53.2,22.7,29.81,SSE,157,3.8,8.7,30,0.00,,,0.00,WUHU21623XXSP,2013-05-10 23:43:00,
2013-05-10 18:48:00,52.9,21.4,29.81,South,169,5.3,8.7,29,0.00,,,0.00,WUHU21623XXSP,2013-05-10 23:48:00,
2013-05-10 18:53:00,52.9,21.4,29.80,South,180,6.3,8.1,29,0.00,,,0.00,WUHU21623XXSP,2013-05-10 23:53:00,
2013-05-10 18:58:00,52.7,21.2,29.80,SSE,154,2.7,8.1,29,0.00,,,0.00,WUHU21623XXSP,2013-05-10 23:58:00,
2013-05-10 19:03:00,52.9,21.4,29.80,South,180,6.9,7.6,29,0.00,,,0.00,WUHU21623XXSP,2013-05-11 00:03:00,
2013-05-10 19:08:00,52.9,22.4,29.79,South,181,4.1,7.6,30,0.00,,,0.00,WUHU21623XXSP,2013-05-11 00:08:00,
2013-05-10 19:13:00,52.9,20.4,29.79,South,175,4.9,10.3,28,0.00,,,0.00,WUHU21623XXSP,2013-05-11 00:13:00,
2013-05-10 19:18:00,52.7,21.2,29.79,SSE,162,3.8,10.3,29,0.00,,,0.00,WUHU21623XXSP,2013-05-11 00:18:00,
2013-05-10 19:23:00,52.5,21.1,29.78,SSE,157,5.1,6.9,29,0.10,,,0.10,WUHU21623XXSP,2013-05-11 00:23:00,
2013-05-10 19:28:00,52.2,19.9,29.78,South,180,7.4,7.8,28,0.00,,,0.00,WUHU21623XXSP,2013-05-11 00:28:00,
2013-05-10 19:33:00,52.0,20.6,29.78,South,190,4.8,7.8,29,0.00,,,0.00,WUHU21623XXSP,2013-05-11 00:33:00,
2013-05-10 19:38:00,51.8,20.4,29.78,South,180,3.1,7.6,29,0.00,,,0.00,WUHU21623XXSP,2013-05-11 00:38:00,
2013-05-10 19:43:00,51.6,21.2,29.78,SSE,157,4.5,7.6,30,0.00,,,0.00,WUHU21623XXSP,2013-05-11 00:43:00,
2013-05-10 19:48:00,51.4,20.1,29.79,South,180,4.5,7.2,29,0.49,,,0.49,WUHU21623XXSP,2013-05-11 00:48:00,
2013-05-10 19:53:00,51.3,20.9,29.80,South,180,5.6,7.2,30,0.49,,,0.49,WUHU21623XXSP,2013-05-11 00:53:00,
2013-05-10 19:58:00,51.1,22.8,29.80,WSW,249,3.4,6.7,33,0.49,,,0.49,WUHU21623XXSP,2013-05-11 00:58:00,
2013-05-10 20:03:00,50.7,21.8,29.80,West,270,0.0,6.0,32,0.49,,,0.49,WUHU21623XXSP,2013-05-11 01:03:00,
2013-05-10 20:08:00,50.2,21.3,29.80,West,270,0.0,1.3,32,0.49,,,0.49,WUHU21623XXSP,2013-05-11 01:08:00,
2013-05-10 20:13:00,49.8,21.0,29.80,SSE,157,3.8,5.6,32,0.49,,,0.49,WUHU21623XXSP,2013-05-11 01:13:00,
2013-05-10 20:18:00,49.8,20.3,29.80,SSE,157,4.7,5.6,31,0.49,,,0.49,WUHU21623XXSP,2013-05-11 01:18:00,
2013-05-10 20:23:00,49.6,20.8,29.79,SE,135,6.9,6.9,32,0.49,,,0.49,WUHU21623XXSP,2013-05-11 01:23:00,
2013-05-10 20:28:00,49.5,20.7,29.79,SE,136,2.6,6.9,32,0.49,,,0.49,WUHU21623XXSP,2013-05-11 01:28:00,
2013-05-10 20:33:00,49.3,19.9,29.79,SSE,149,4.3,6.5,31,0.49,,,0.49,WUHU21623XXSP,2013-05-11 01:33:00,
2013-05-10 20:38:00,49.1,21.1,29.79,SSE,157,2.9,7.2,33,0.49,,,0.49,WUHU21623XXSP,2013-05-11 01:38:00,
2013-05-10 20:43:00,48.7,20.8,29.79,SSE,157,3.8,7.4,33,0.49,,,0.49,WUHU21623XXSP,2013-05-11 01:43:00,
2013-05-10 20:48:00,48.6,20.6,29.79,SSE,160,4.3,7.4,33,0.00,,,0.49,WUHU21623XXSP,2013-05-11 01:48:00,
2013-05-10 20:53:00,48.4,21.1,29.79,South,171,2.2,6.3,34,0.00,,,0.49,WUHU21623XXSP,2013-05-11 01:53:00,
2013-05-10 20:58:00,48.0,21.5,29.79,South,171,2.8,4.7,35,0.00,,,0.49,WUHU21623XXSP,2013-05-11 01:58:00,
2013-05-10 21:03:00,48.0,21.5,29.79,SW,225,3.1,4.3,35,0.00,,,0.49,WUHU21623XXSP,2013-05-11 02:03:00,
2013-05-10 21:08:00,48.0,21.5,29.80,NW,315,2.7,4.3,35,0.00,,,0.49,WUHU21623XXSP,2013-05-11 02:08:00,
2013-05-10 21:13:00,47.1,22.0,29.80,West,270,0.0,3.6,37,0.00,,,0.49,WUHU21623XXSP,2013-05-11 02:13:00,
2013-05-10 21:18:00,47.1,22.0,29.80,SW,225,0.0,3.6,37,0.00,,,0.49,WUHU21623XXSP,2013-05-11 02:18:00,
2013-05-10 21:23:00,46.9,22.5,29.80,SW,225,0.0,0.0,38,0.00,,,0.49,WUHU21623XXSP,2013-05-11 02:23:00,
2013-05-10 21:28:00,47.1,22.0,29.80,SW,225,0.0,0.7,37,0.00,,,0.49,WUHU21623XXSP,2013-05-11 02:28:00,
2013-05-10 21:33:00,46.9,23.2,29.80,SW,225,0.0,0.7,39,0.00,,,0.49,WUHU21623XXSP,2013-05-11 02:33:00,
2013-05-10 21:38:00,47.1,22.7,29.80,SW,225,0.7,0.7,38,0.00,,,0.49,WUHU21623XXSP,2013-05-11 02:38:00,
2013-05-10 21:43:00,46.9,23.8,29.80,WSW,247,1.1,1.3,40,0.00,,,0.49,WUHU21623XXSP,2013-05-11 02:43:00,
2013-05-10 21:48:00,46.9,23.8,29.80,WSW,247,0.1,2.7,40,0.00,,,0.49,WUHU21623XXSP,2013-05-11 02:48:00,
2013-05-10 21:53:00,46.9,25.5,29.81,West,270,1.8,2.9,43,0.00,,,0.49,WUHU21623XXSP,2013-05-11 02:53:00,
2013-05-10 21:58:00,46.8,30.0,29.82,NW,318,8.4,13.4,52,0.00,,,0.49,WUHU21623XXSP,2013-05-11 02:58:00,
2013-05-10 22:03:00,46.6,35.4,29.81,NW,313,10.1,13.4,65,0.00,,,0.49,WUHU21623XXSP,2013-05-11 03:03:00,
2013-05-10 22:08:00,46.2,36.6,29.81,NW,309,6.9,18.1,69,0.00,,,0.49,WUHU21623XXSP,2013-05-11 03:08:00,
2013-05-10 22:13:00,46.2,37.4,29.82,NW,322,7.5,18.1,71,0.00,,,0.49,WUHU21623XXSP,2013-05-11 03:13:00,
2013-05-10 22:18:00,46.0,38.2,29.82,NNW,337,8.1,12.5,74,0.00,,,0.49,WUHU21623XXSP,2013-05-11 03:18:00,
2013-05-10 22:23:00,45.5,38.0,29.83,NW,315,7.4,11.9,75,0.00,,,0.49,WUHU21623XXSP,2013-05-11 03:23:00,
2013-05-10 22:28:00,45.1,38.0,29.83,NW,315,15.7,15.7,76,0.00,,,0.49,WUHU21623XXSP,2013-05-11 03:28:00,
2013-05-10 22:33:00,44.4,37.6,29.83,NW,315,15.2,17.9,77,0.00,,,0.49,WUHU21623XXSP,2013-05-11 03:33:00,
2013-05-10 22:38:00,43.3,36.6,29.83,West,270,12.8,17.9,77,0.00,,,0.49,WUHU21623XXSP,2013-05-11 03:38:00,
2013-05-10 22:43:00,42.1,36.3,29.83,WNW,292,11.9,18.1,80,0.00,,,0.49,WUHU21623XXSP,2013-05-11 03:43:00,
2013-05-10 22:48:00,41.7,36.6,29.83,NW,305,6.1,17.9,82,0.02,,,0.51,WUHU21623XXSP,2013-05-11 03:48:00,
2013-05-10 22:53:00,41.5,36.4,29.83,NW,317,5.1,11.9,82,0.02,,,0.51,WUHU21623XXSP,2013-05-11 03:53:00,
2013-05-10 22:58:00,41.4,36.5,29.84,NW,310,8.5,11.9,83,0.02,,,0.51,WUHU21623XXSP,2013-05-11 03:58:00,
2013-05-10 23:01:00,41.2,36.0,29.84,WNW,292,10.7,12.8,82,0.02,,,0.51,WUHU21623XXSP,2013-05-11 04:01:00,
2013-05-10 23:06:00,41.2,36.3,29.84,NW,315,4.5,13.2,83,0.02,,,0.51,WUHU21623XXSP,2013-05-11 04:06:00,
2013-05-10 23:11:00,41.0,36.2,29.83,NW,315,8.5,13.2,83,0.02,,,0.51,WUHU21623XXSP,2013-05-11 04:11:00,
2013-05-10 23:16:00,40.8,36.0,29.83,NW,313,7.2,10.5,83,0.04,,,0.53,WUHU21623XXSP,2013-05-11 04:16:00,
2013-05-10 23:21:00,40.8,36.3,29.83,NNW,328,4.0,11.2,84,0.04,,,0.53,WUHU21623XXSP,2013-05-11 04:21:00,
2013-05-10 23:26:00,40.8,36.3,29.83,NW,317,4.8,11.2,84,0.06,,,0.55,WUHU21623XXSP,2013-05-11 04:26:00,
2013-05-10 23:31:00,40.8,36.3,29.83,NNW,337,5.1,10.1,84,0.06,,,0.55,WUHU21623XXSP,2013-05-11 04:31:00,
2013-05-10 23:36:00,40.8,36.3,29.83,NW,315,9.4,11.0,84,0.06,,,0.55,WUHU21623XXSP,2013-05-11 04:36:00,
2013-05-10 23:41:00,40.8,36.3,29.83,NW,315,19.7,19.7,84,0.06,,,0.55,WUHU21623XXSP,2013-05-11 04:41:00,
2013-05-10 23:46:00,40.6,35.8,29.83,WNW,297,11.0,19.7,83,0.04,,,0.55,WUHU21623XXSP,2013-05-11 04:46:00,
2013-05-10 23:51:00,40.5,35.7,29.83,NW,309,7.6,17.2,83,0.04,,,0.55,WUHU21623XXSP,2013-05-11 04:51:00,
2013-05-10 23:56:00,40.1,35.3,29.83,NW,315,18.6,19.5,83,0.04,,,0.55,WUHU21623XXSP,2013-05-11 04:56:00,